Flag for Germany Weather past 2 weeks in Neumarkt in der Oberpfalz, Bavaria, Germany

Now
52 °F

Sunny.


Feels Like: 51 °F
Forecast: 43 / 48 °F
Wind: 5 mph from Southwest

Location: Hohenfels

Current Time: Mar 28, 2015 at 5:27:00 PM

Latest Report: Mar 28, 2015 at 4:58 PM


Visibility: N/A

Pressure: 30.05 "Hg

Humidity: 41%

Dew point: 28 °F

Location of Neumarkt in der OberpfalzLocation

Historic Weather in Neumarkt in der Oberpfalz — Graph

°F

Neumarkt in der Oberpfalz temperature yesterday

Maximum temperature yesterday: 47 °F (at 1:58 PM)
Minimum temperature yesterday: 37 °F (at 2:58 AM)
Average temperature yesterday: 41 °F

Past Weeks' High & Low Weather Summary

 TemperatureHumidityPressure
High63 °F (Mar 25, 1:58 PM)100% (Mar 18, 1:58 AM)30.34 "Hg (Mar 18, 1:58 AM)
Low25 °F (Mar 21, 4:58 AM)31% (Mar 16, 3:58 PM)29.59 "Hg (Mar 25, 10:58 PM)
Average41 °F73%30.08 "Hg
* Reported Mar 13 3:58 PM — Mar 28 3:58 PM, Neumarkt in der Oberpfalz, Weather by CustomWeather, © 2015

Note: Actual official high and low records may vary slightly from our data, if they occured in-between our weather recording intervals... More about our weather records

Advertising

Neumarkt in der Oberpfalz weather history for previous 24 hours

 ConditionsComfort  
Time TempWeatherWind HumidityBarometerVisibility
3:58 PM
Sat, Mar 28
52 °FSunny.5 mph44%30.07 "HgN/A
2:58 PM51 °FScattered clouds.5 mph44%30.10 "HgN/A
1:58 PM50 °FPartly sunny.3 mph45%30.12 "HgN/A
12:58 PM46 °FPartly sunny.2 mph50%30.16 "HgN/A
11:58 AM47 °FPartly sunny.5 mph51%30.19 "HgN/A
10:58 AM46 °FPartly sunny.5 mph53%30.21 "HgN/A
9:58 AM45 °FOvercast.1 mph53%30.23 "HgN/A
8:58 AM43 °FSunny.7 mph61%30.24 "HgN/A
7:58 AM39 °FOvercast.3 mph78%30.26 "HgN/A
6:58 AM36 °FPartly sunny.1 mph87%30.27 "HgN/A
5:58 AM38 °FOvercast.2 mph76%30.25 "HgN/A
4:58 AM38 °FOvercast.3 mph80%30.25 "HgN/A
3:58 AM39 °FOvercast.3 mph75%30.23 "HgN/A
2:58 AM40 °FOvercast.5 mph74%30.23 "HgN/A
1:58 AM40 °FOvercast.2 mph77%30.22 "HgN/A
12:58 AM40 °FOvercast.3 mph78%30.23 "HgN/A
11:58 PM
Fri, Mar 27
40 °FOvercast.1 mph82%30.23 "HgN/A
10:58 PM39 °FOvercast.No wind87%30.23 "HgN/A
9:58 PM41 °FOvercast.No wind81%30.22 "HgN/A
8:58 PM41 °FOvercast.No wind76%30.21 "HgN/A
7:58 PM41 °FOvercast.3 mph76%30.19 "HgN/A
7:00 PM41 °FLight rain. Overcast.6 mph76%30.13 "HgN/A
6:58 PM41 °FMostly cloudy.6 mph81%30.18 "HgN/A
5:58 PM41 °FPartly sunny.3 mph83%30.15 "HgN/A
Weather by CustomWeather, © 2015

See weather overviewHow to use our weather pages